Regional Weather Roundup
Issued by NWS

Home | Current Version | Previous Version | Graphics & Text | Print | Product List | Glossary Off
Versions: 1 2 3 4 5 6 7 8 9 10 11 12 13 14 15 16 17 18 19 20 21 22 23 24 25 26 27 28 29 30 31 32 33 34 35 36 37 38 39 40 41 42 43 44 45 46 47 48 49 50

000
ASUS43 KMKX 311820
RWRWI

WISCONSIN REGIONAL WEATHER ROUNDUP
NATIONAL WEATHER SERVICE MILWAUKEE/SULLIVAN WI
1200 PM CST SAT JAN 31 2015

NOTE: "FAIR" INDICATES FEW OR NO CLOUDS BELOW 12,000 FEET WITH NO
SIGNIFICANT WEATHER AND/OR OBSTRUCTIONS TO VISIBILITY.

WIZ001-002-006>008-014>016-023>028-311900-
NORTHWEST WISCONSIN

CITY           SKY/WX    TMP DP  RH WIND       PRES   REMARKS
SUPERIOR ARPT  SUNNY     22   8  54 N3        30.28S
6HR MIN TEMP:  22; 6HR MAX TEMP:  24;

ASHLAND        CLOUDY    21  12  68 N13       30.25R WCI   9
6HR MIN TEMP:  21; 6HR MAX TEMP:  23;

HAYWARD        CLOUDY    23  14  68 N8        30.20S WCI  14
6HR MIN TEMP:  21; 6HR MAX TEMP:  23;

SIREN          MOSUNNY   26  16  66 NE12      30.21F WCI  15
6HR MIN TEMP:  23; 6HR MAX TEMP:  26;

CUMBERLAND     CLOUDY    27  18  69 NE10      30.18F WCI  17
RICE LAKE      CLOUDY    26  18  72 N7        30.20F WCI  19
6HR MIN TEMP:  20; 6HR MAX TEMP:  26;

CHETEK         CLOUDY    27  19  71 N6        30.19S WCI  20
6HR MIN TEMP:  19; 6HR MAX TEMP:  27;

LADYSMITH      CLOUDY    26  19  72 N7        30.18F WCI  19
6HR MIN TEMP:  20; 6HR MAX TEMP:  26;

EAU CLAIRE     CLOUDY    27  19  72 NE7       30.18F WCI  19
6HR MIN TEMP:  22; 6HR MAX TEMP:  27;

MENOMONIE      CLOUDY    28  20  72 N8        30.19F WCI  20
6HR MIN TEMP:  24; 6HR MAX TEMP:  28;

NEW RICHMOND   CLOUDY    27  20  75 NE9       30.20S WCI  18
6HR MIN TEMP:  25; 6HR MAX TEMP:  27;

OSCEOLA        CLOUDY    27  19  74 NE8       30.24S WCI  18
6HR MIN TEMP:  26; 6HR MAX TEMP:  27;

$$

WIZ003>005-009-010-017-018-311900-
NORTH CENTRAL WISCONSIN

CITY           SKY/WX    TMP DP  RH WIND       PRES   REMARKS
MANITOWISH WTR LGT SNOW  20  16  83 N8        30.14R WCI  11
6HR MIN TEMP:  17; 6HR MAX TEMP:  21;

ARBOR VITAE    LGT SNOW  22  17  81 N12G17    30.14R WCI  11
6HR MIN TEMP:  19; 6HR MAX TEMP:  23;

WOODRUFF       LGT SNOW  22  17  81 N12G17    30.14R WCI  11
6HR MIN TEMP:  19; 6HR MAX TEMP:  23;

RHINELANDER    CLOUDY    22  16  78 NW8       30.13S WCI  12
6HR MIN TEMP:  17; 6HR MAX TEMP:  22;

EAGLE RIVER    CLOUDY    22  16  76 NW12      30.12S WCI  11
6HR MIN TEMP:  17; 6HR MAX TEMP:  22;

LAND O LAKES   LGT SNOW  22  17  79 N12G17    30.13S WCI  11
6HR MIN TEMP:  17; 6HR MAX TEMP:  22;

PHILLIPS       CLOUDY    22  16  76 N6        30.15S WCI  15
6HR MIN TEMP:  18; 6HR MAX TEMP:  22;

TOMAHAWK       CLOUDY    23  17  77 CALM      30.15S
6HR MIN TEMP:  19; 6HR MAX TEMP:  23;

MEDFORD        CLOUDY    25  18  76 N8        30.14F WCI  16
6HR MIN TEMP:  19; 6HR MAX TEMP:  25;

MERRILL        CLOUDY    25  19  75 N6        30.14F WCI  18
6HR MIN TEMP:  19; 6HR MAX TEMP:  25;

$$

WIZ029-030-035-036-043>047-311900-
CENTRAL WISCONSIN

CITY           SKY/WX    TMP DP  RH WIND       PRES   REMARKS
WAUSAU         CLOUDY    26  18  71 N6        30.14F WCI  19
6HR MIN TEMP:  19; 6HR MAX TEMP:  26;

MOSINEE        CLOUDY    25  19  80 N7        30.16S WCI  17
MARSHFIELD     CLOUDY    26  19  74 N8        30.15F WCI  18
6HR MIN TEMP:  20; 6HR MAX TEMP:  26;

STEVENS POINT  CLOUDY    24  16  73 NW5       30.17S WCI  18
6HR MIN TEMP:  19; 6HR MAX TEMP:  24;

WAUPACA        CLOUDY    30  19  63 NW5       30.18S WCI  25
6HR MIN TEMP:  22; 6HR MAX TEMP:  30;

WAUTOMA        CLOUDY    29  20  69 NW8       30.18S WCI  21
6HR MIN TEMP:  19; 6HR MAX TEMP:  29;

WISC RAPIDS    CLOUDY    26  18  71 N6        30.19S WCI  19
6HR MIN TEMP:  21; 6HR MAX TEMP:  27;

CAMP DOUGLAS   CLOUDY    30  25  80 N6        30.17F WCI  24
$$

WIZ011>013-019>022-031-037>040-048>050-311900-
NORTHEAST WISCONSIN

CITY           SKY/WX    TMP DP  RH WIND       PRES   REMARKS
ANTIGO         CLOUDY    23  18  80 N7        30.12F WCI  15
6HR MIN TEMP:  18; 6HR MAX TEMP:  24;

SHAWANO        CLOUDY    29  18  63 NW5       30.17S WCI  24
6HR MIN TEMP:  23; 6HR MAX TEMP:  29;

OCONTO         CLOUDY    27  17  65 CALM      30.17S
6HR MIN TEMP:  21; 6HR MAX TEMP:  27;

STURGEON BAY   CLOUDY    25  14  63 NW6       30.18S WCI  18
6HR MIN TEMP:  21; 6HR MAX TEMP:  25;

GREEN BAY      CLOUDY    27  18  69 NW6       30.17F WCI  20
6HR MIN TEMP:  21; 6HR MAX TEMP:  27;

MANITOWOC      CLOUDY    28  20  71 N9        30.17F WCI  19
6HR MIN TEMP:  23; 6HR MAX TEMP:  29;

APPLETON       CLOUDY    27  18  69 NW7       30.17S WCI  19
CLINTONVILLE   CLOUDY    28  18  64 N7        30.17F WCI  21
OSHKOSH        CLOUDY    29  19  66 N7        30.17S WCI  22
6HR MIN TEMP:  22; 6HR MAX TEMP:  29;

$$

WIZ032>034-041-042-053>061-311900-
SOUTHWEST WISCONSIN

CITY           SKY/WX    TMP DP  RH WIND       PRES   REMARKS
LA CROSSE      CLOUDY    30  20  66 NW3       30.19F
6HR MIN TEMP:  24; 6HR MAX TEMP:  30;

SPARTA         CLOUDY    30  22  73 N5        30.19S WCI  25
6HR MIN TEMP:  25; 6HR MAX TEMP:  30;

VIROQUA        CLOUDY    30  23  76 N3        30.14F
6HR MIN TEMP:  19; 6HR MAX TEMP:  30;

BOSCOBEL       CLOUDY    32  20  61 CALM      30.18F
6HR MIN TEMP:  13; 6HR MAX TEMP:  32;

PRAIRIE DU CHI CLOUDY    32  21  64 CALM      30.18F
6HR MIN TEMP:  18; 6HR MAX TEMP:  32;

PLATTEVILLE    CLOUDY    32  24  73 W5        30.16F WCI  27
6HR MIN TEMP:  19; 6HR MAX TEMP:  32;

$$

WIZ056-057-062-063-064-067-068-311900-
SOUTH CENTRAL WISCONSIN

CITY           SKY/WX    TMP DP  RH WIND       PRES   REMARKS
REEDSBURG      CLOUDY    30  22  70 N3        30.16F
6HR MIN TEMP:  19; 6HR MAX TEMP:  30;

BARABOO/DELLS  CLOUDY    30  20  66 CALM      30.16S
6HR MIN TEMP:  20; 6HR MAX TEMP:  30;

LONE ROCK      CLOUDY    30  19  63 W3        30.18F
6HR MIN TEMP:  14; 6HR MAX TEMP:  30;

MINERAL POINT  CLOUDY    32  23  69 W3        30.14F
MADISON        CLOUDY    33  20  58 NW7       30.17S WCI  27
6HR MIN TEMP:  22; 6HR MAX TEMP:  33;

MIDDLETON      PTSUNNY   34  21  58 W5        30.17S WCI  30
6HR MIN TEMP:  22; 6HR MAX TEMP:  34;

WATERTOWN      PTSUNNY   32  21  64 W6        30.16S WCI  26
6HR MIN TEMP:  20; 6HR MAX TEMP:  32;

MONROE         CLOUDY    32  25  74 W6        30.15F WCI  26
JANESVILLE     SUNNY     36  21  55 W7        30.17F WCI  30
$$

WIZ051-052-058>065-066-070>072-311900-
SOUTHEAST WISCONSIN

CITY           SKY/WX    TMP DP  RH WIND       PRES   REMARKS
MILWAUKEE      PTSUNNY   34  19  54 W9        30.17S WCI  27
6HR MIN TEMP:  23; 6HR MAX TEMP:  34;

WAUKESHA       PTSUNNY   30  19  64 W9        30.17F WCI  22
MILWAUKEE/TIMM SUNNY     34  18  51 NW8       30.18S WCI  27
RACINE         MOSUNNY   34  20  56 W7        30.19S WCI  28
6HR MIN TEMP:  23; 6HR MAX TEMP:  34;

BURLINGTON     MOSUNNY   32  20  63 W9        30.17S WCI  24
6HR MIN TEMP:  23; 6HR MAX TEMP:  32;

KENOSHA        MOSUNNY   35  22  58 W12       30.17F WCI  27
6HR MIN TEMP:  23; 6HR MAX TEMP:  35;

FOND DU LAC    CLOUDY    29  18  63 N5        30.17F WCI  24
6HR MIN TEMP:  22; 6HR MAX TEMP:  30;

SHEBOYGAN      CLOUDY    30  19  63 NW10      30.16F WCI  21
6HR MIN TEMP:  24; 6HR MAX TEMP:  30;

WEST BEND      CLOUDY    30  19  64 NW8       30.16F WCI  23
JUNEAU         CLOUDY    29  20  69 W3        30.17F
6HR MIN TEMP:  18; 6HR MAX TEMP:  29;

$$

LSZ147-162-311900-
LAKE SUPERIOR

STATION/POSITION TIME  TEMP    WIND        PRES    WAVE
                       AIR SEA DIR/SP/G            HT/PER
                 (UTC) (F)     (DEG/KT/KT) (MB)    (FT/S)
DEVILS ISLAND    1800   17     350/ 16/ 19 1026.4R
PORT WING        1740   21      10/ 10/ 13 1025.1S
SAXON HARBOR     1700   22     360/ 15/ 18 1024.0R
$$

LMZ867-665-643>646-311900-
LAKE MICHIGAN

STATION/POSITION TIME  TEMP    WIND        PRES    WAVE
                       AIR SEA DIR/SP/G            HT/PER


USA.gov is the U.S. government's official web portal to all federal, state and local government web resources and services.